星链-3173 (STARLINK-3173 )

导读 | 星芒AI

STARLINK-3173 是 SpaceX Starlink 项目中的一颗低轨通信卫星,属于第三代星链卫星(v1.5 或 v2 构型)。该卫星于 2023 年发射,旨在为全球提供高速互联网服务。它运行在约 550 公里的轨道高度,配备先进通信设备和激光链路,以提升网络性能和卫星间通信能力。STARLINK-3173 是 SpaceX 扩展全球宽带覆盖计划的一部分,支持偏远地区和高需求区域的互联网接入,推动 Starlink 网络的稳定性和服务能力。

基本信息
目录编号:
51111
目录名称:
STARLINK-3173
国际标识:
2022-005H
轨道中心:
EARTH
卫星名称:
星链-3173
卫星全名:
星链-3173 (STARLINK-3173 )
卫星状态:
在轨 (已飞行1383 天)
发射日期:
2022-01-19 UTC
国别 :
美国 (US)
星等 :
--
轨道信息
数据来源 国际轨道数据
星历时间: 2025-11-01T07:20:24+0800
1天前
查看轨道信息
半长轴: 6917.871km
偏心率: 0.0001396
轨道倾角: 53.215°
近地点辐角 91.834°
升交点赤经 146.952°
平近点角 268.281°
近地点: 538.77km
远地点: 540.702km
周期: 95.437分钟
每日圈数: 15.088431
详细信息
固有亮度:
5
最大亮度:
2.5
卫星平台:
Starlink v1.5
覆盖范围:
全球
运营商:
太空探索技术公司
运营商所在国:
美国
制造商(研发单位):
太空探索技术公司
制造商所在国:
美国
使用方式:
暂无
卫星简介
星链(Starlink)计划是由太空探索技术公司(SpaceX)提出的一个巨型低轨卫星互联网星座项目,计划在2019年至2024年间在太空搭建由约1.2万颗卫星组成的“星链”网络,其中1584颗将部署在地球上空550千米处的近地轨道,并从2020年开始工作。该卫星仍在工作。
2D轨道图
3D轨道图
轨道高度分析图
轨道倾角分析图
轨道综合分析图
查看轨道综合分析图